#datetime,building,power
2023-03-07T00:01:00,cen,10.80
2023-03-07T00:02:00,cen,3.60
2023-03-07T00:04:00,cen,8.40
2023-03-07T00:06:00,cen,8.40
2023-03-07T00:07:00,cen,4.80
2023-03-07T00:09:00,cen,8.40
2023-03-07T00:11:00,cen,9.60
2023-03-07T00:13:00,cen,9.60
2023-03-07T00:15:00,cen,10.80
2023-03-07T00:17:00,cen,9.60
2023-03-07T00:19:00,cen,8.40
2023-03-07T00:21:00,cen,9.60
2023-03-07T00:23:00,cen,10.80
2023-03-07T00:25:00,cen,9.60
2023-03-07T00:27:00,cen,8.40
2023-03-07T00:29:00,cen,7.20
2023-03-07T00:31:00,cen,9.60
2023-03-07T00:32:00,cen,3.60
2023-03-07T00:34:00,cen,9.60
2023-03-07T00:36:00,cen,7.20
2023-03-07T00:38:00,cen,9.60
2023-03-07T00:40:00,cen,7.20
2023-03-07T00:41:00,cen,2.40
2023-03-07T00:43:00,cen,7.20
2023-03-07T00:44:00,cen,4.80
2023-03-07T00:46:00,cen,9.60
2023-03-07T00:48:00,cen,8.40
2023-03-07T00:50:00,cen,8.40
2023-03-07T00:52:00,cen,8.40
2023-03-07T00:53:00,cen,4.80
2023-03-07T00:55:00,cen,8.40
2023-03-07T00:57:00,cen,8.40
2023-03-07T00:58:00,cen,4.80
2023-03-07T01:00:00,cen,9.60
2023-03-07T01:01:00,cen,3.60
2023-03-07T01:03:00,cen,8.40
2023-03-07T01:05:00,cen,8.40
2023-03-07T01:07:00,cen,9.60
2023-03-07T01:09:00,cen,9.60
2023-03-07T01:11:00,cen,7.20
2023-03-07T01:13:00,cen,8.40
2023-03-07T01:15:00,cen,9.60
2023-03-07T01:17:00,cen,8.40
2023-03-07T01:19:00,cen,9.60
2023-03-07T01:21:00,cen,7.20
2023-03-07T01:22:00,cen,6.00
2023-03-07T01:24:00,cen,8.40
2023-03-07T01:25:00,cen,3.60
2023-03-07T01:27:00,cen,8.40
2023-03-07T01:28:00,cen,4.80
2023-03-07T01:30:00,cen,9.60
2023-03-07T01:32:00,cen,9.60
2023-03-07T01:34:00,cen,8.40
2023-03-07T01:36:00,cen,8.40
2023-03-07T01:37:00,cen,4.80
2023-03-07T01:39:00,cen,8.40
2023-03-07T01:41:00,cen,8.40
2023-03-07T01:43:00,cen,9.60
2023-03-07T01:45:00,cen,8.40
2023-03-07T01:47:00,cen,8.40
2023-03-07T01:48:00,cen,3.60
2023-03-07T01:50:00,cen,7.20
2023-03-07T01:52:00,cen,9.60
2023-03-07T01:53:00,cen,14.40
2023-03-07T01:55:00,cen,25.20
2023-03-07T01:57:00,cen,24.00
2023-03-07T01:59:00,cen,8.40
2023-03-07T02:01:00,cen,8.40
2023-03-07T02:03:00,cen,8.40
2023-03-07T02:04:00,cen,6.00
2023-03-07T02:06:00,cen,8.40
2023-03-07T02:07:00,cen,3.60
2023-03-07T02:08:00,cen,4.80
2023-03-07T02:10:00,cen,8.40
2023-03-07T02:11:00,cen,3.60
2023-03-07T02:13:00,cen,8.40
2023-03-07T02:15:00,cen,9.60
2023-03-07T02:16:00,cen,4.80
2023-03-07T02:18:00,cen,7.20
2023-03-07T02:20:00,cen,8.40
2023-03-07T02:22:00,cen,9.60
2023-03-07T02:24:00,cen,9.60
2023-03-07T02:26:00,cen,7.20
2023-03-07T02:27:00,cen,6.00
2023-03-07T02:29:00,cen,7.20
2023-03-07T02:30:00,cen,6.00
2023-03-07T02:32:00,cen,8.40
2023-03-07T02:33:00,cen,3.60
2023-03-07T02:35:00,cen,8.40
2023-03-07T02:37:00,cen,8.40
2023-03-07T02:39:00,cen,8.40
2023-03-07T02:40:00,cen,6.00
2023-03-07T02:42:00,cen,8.40
2023-03-07T02:44:00,cen,9.60
2023-03-07T02:46:00,cen,10.80
2023-03-07T02:48:00,cen,8.40
2023-03-07T02:50:00,cen,9.60
2023-03-07T02:51:00,cen,2.40
2023-03-07T02:53:00,cen,9.60
2023-03-07T02:54:00,cen,4.80
2023-03-07T02:56:00,cen,8.40
2023-03-07T02:58:00,cen,8.40
2023-03-07T03:00:00,cen,8.40
2023-03-07T03:02:00,cen,9.60
2023-03-07T03:03:00,cen,3.60
2023-03-07T03:05:00,cen,8.40
2023-03-07T03:07:00,cen,8.40
2023-03-07T03:08:00,cen,6.00
2023-03-07T03:09:00,cen,3.60
2023-03-07T03:10:00,cen,3.60
2023-03-07T03:12:00,cen,9.60
2023-03-07T03:14:00,cen,8.40
2023-03-07T03:16:00,cen,9.60
2023-03-07T03:18:00,cen,8.40
2023-03-07T03:19:00,cen,4.80
2023-03-07T03:21:00,cen,8.40
2023-03-07T03:23:00,cen,9.60
2023-03-07T03:24:00,cen,4.80
2023-03-07T03:26:00,cen,8.40
2023-03-07T03:27:00,cen,3.60
2023-03-07T03:28:00,cen,4.80
2023-03-07T03:30:00,cen,8.40
2023-03-07T03:31:00,cen,4.80
2023-03-07T03:33:00,cen,8.40
2023-03-07T03:35:00,cen,8.40
2023-03-07T03:36:00,cen,4.80
2023-03-07T03:38:00,cen,9.60
2023-03-07T03:40:00,cen,8.40
2023-03-07T03:42:00,cen,8.40
2023-03-07T03:44:00,cen,8.40
2023-03-07T03:46:00,cen,10.80
2023-03-07T03:48:00,cen,8.40
2023-03-07T03:49:00,cen,2.40
2023-03-07T03:50:00,cen,4.80
2023-03-07T03:52:00,cen,7.20
2023-03-07T03:54:00,cen,8.40
2023-03-07T03:56:00,cen,7.20
2023-03-07T03:58:00,cen,8.40
2023-03-07T03:59:00,cen,3.60
2023-03-07T04:01:00,cen,8.40
2023-03-07T04:02:00,cen,3.60
2023-03-07T04:04:00,cen,8.40
2023-03-07T04:05:00,cen,3.60
2023-03-07T04:07:00,cen,9.60
2023-03-07T04:09:00,cen,10.80
2023-03-07T04:10:00,cen,4.80
2023-03-07T04:12:00,cen,8.40
2023-03-07T04:14:00,cen,9.60
2023-03-07T04:16:00,cen,9.60
2023-03-07T04:17:00,cen,4.80
2023-03-07T04:18:00,cen,4.80
2023-03-07T04:20:00,cen,8.40
2023-03-07T04:22:00,cen,10.80
2023-03-07T04:24:00,cen,9.60
2023-03-07T04:26:00,cen,9.60
2023-03-07T04:27:00,cen,3.60
2023-03-07T04:29:00,cen,13.20
2023-03-07T04:31:00,cen,10.80
2023-03-07T04:33:00,cen,10.80
2023-03-07T04:34:00,cen,12.00
2023-03-07T04:36:00,cen,27.60
2023-03-07T04:38:00,cen,26.40
2023-03-07T04:40:00,cen,12.00
2023-03-07T04:42:00,cen,8.40
2023-03-07T04:43:00,cen,4.80
2023-03-07T04:44:00,cen,6.00
2023-03-07T04:46:00,cen,9.60
2023-03-07T04:47:00,cen,7.20
2023-03-07T04:49:00,cen,9.60
2023-03-07T04:50:00,cen,4.80
2023-03-07T04:52:00,cen,9.60
2023-03-07T04:54:00,cen,13.20
2023-03-07T04:56:00,cen,12.00
2023-03-07T04:57:00,cen,6.00
2023-03-07T04:59:00,cen,12.00
2023-03-07T05:01:00,cen,13.20
2023-03-07T05:03:00,cen,10.80
2023-03-07T05:04:00,cen,6.00
2023-03-07T05:06:00,cen,9.60
2023-03-07T05:07:00,cen,4.80
2023-03-07T05:09:00,cen,10.80
2023-03-07T05:11:00,cen,9.60
2023-03-07T05:13:00,cen,9.60
2023-03-07T05:15:00,cen,9.60
2023-03-07T05:17:00,cen,9.60
2023-03-07T05:19:00,cen,9.60
2023-03-07T05:21:00,cen,8.40
2023-03-07T05:22:00,cen,4.80
2023-03-07T05:24:00,cen,10.80
2023-03-07T05:26:00,cen,8.40
2023-03-07T05:28:00,cen,9.60
2023-03-07T05:29:00,cen,4.80
2023-03-07T05:31:00,cen,12.00
2023-03-07T05:32:00,cen,4.80
2023-03-07T05:34:00,cen,10.80
2023-03-07T05:36:00,cen,9.60
2023-03-07T05:37:00,cen,6.00
2023-03-07T05:39:00,cen,10.80
2023-03-07T05:40:00,cen,4.80
2023-03-07T05:41:00,cen,4.80
2023-03-07T05:43:00,cen,9.59
2023-03-07T05:44:00,cen,4.80
2023-03-07T05:46:00,cen,9.59
2023-03-07T05:47:00,cen,6.01
2023-03-07T05:48:00,cen,3.60
2023-03-07T05:50:00,cen,8.40
2023-03-07T05:51:00,cen,6.00
2023-03-07T05:53:00,cen,9.60
2023-03-07T05:55:00,cen,9.60
2023-03-07T05:57:00,cen,8.40
2023-03-07T05:58:00,cen,4.80
2023-03-07T06:00:00,cen,10.80
2023-03-07T06:02:00,cen,10.80
2023-03-07T06:03:00,cen,6.00
2023-03-07T06:05:00,cen,9.60
2023-03-07T06:06:00,cen,4.80
2023-03-07T06:08:00,cen,10.80
2023-03-07T06:09:00,cen,3.60
2023-03-07T06:11:00,cen,8.40
2023-03-07T06:13:00,cen,8.40
2023-03-07T06:15:00,cen,10.80
2023-03-07T06:16:00,cen,4.80
2023-03-07T06:18:00,cen,8.40
2023-03-07T06:19:00,cen,2.40
2023-03-07T06:21:00,cen,8.40
2023-03-07T06:22:00,cen,4.80
2023-03-07T06:24:00,cen,9.60
2023-03-07T06:25:00,cen,3.60
2023-03-07T06:26:00,cen,6.00
2023-03-07T06:28:00,cen,10.80
2023-03-07T06:30:00,cen,10.80
2023-03-07T06:32:00,cen,9.60
2023-03-07T06:34:00,cen,8.40
2023-03-07T06:35:00,cen,4.80
2023-03-07T06:37:00,cen,9.60
2023-03-07T06:38:00,cen,6.00
2023-03-07T06:39:00,cen,4.80
2023-03-07T06:41:00,cen,8.40
2023-03-07T06:42:00,cen,4.80
2023-03-07T06:44:00,cen,8.40
2023-03-07T06:45:00,cen,6.00
2023-03-07T06:47:00,cen,9.60
2023-03-07T06:49:00,cen,8.40
2023-03-07T06:51:00,cen,9.59
2023-03-07T06:53:00,cen,9.60
2023-03-07T06:55:00,cen,8.40
2023-03-07T06:57:00,cen,9.60
2023-03-07T06:59:00,cen,8.40
2023-03-07T07:01:00,cen,10.80
2023-03-07T07:03:00,cen,8.40
2023-03-07T07:05:00,cen,13.20
2023-03-07T07:07:00,cen,14.40
2023-03-07T07:09:00,cen,15.60
2023-03-07T07:11:00,cen,15.60
2023-03-07T07:13:00,cen,14.40
2023-03-07T07:15:00,cen,15.60
2023-03-07T07:17:00,cen,14.40
2023-03-07T07:19:00,cen,14.40
2023-03-07T07:20:00,cen,7.20
2023-03-07T07:22:00,cen,15.60
2023-03-07T07:24:00,cen,26.40
2023-03-07T07:26:00,cen,32.40
2023-03-07T07:28:00,cen,28.81
2023-03-07T07:29:00,cen,7.20
2023-03-07T07:31:00,cen,15.60
2023-03-07T07:32:00,cen,7.20
2023-03-07T07:33:00,cen,7.20
2023-03-07T07:35:00,cen,14.40
2023-03-07T07:37:00,cen,15.60
2023-03-07T07:40:00,cen,14.40
2023-03-07T07:41:00,cen,14.40
2023-03-07T07:43:00,cen,14.40
2023-03-07T07:45:00,cen,15.60
2023-03-07T07:46:00,cen,7.20
2023-03-07T07:48:00,cen,14.40
2023-03-07T07:50:00,cen,14.40
2023-03-07T07:51:00,cen,7.20
2023-03-07T07:52:00,cen,7.20
2023-03-07T07:54:00,cen,14.40
2023-03-07T07:56:00,cen,14.40
2023-03-07T07:58:00,cen,14.40
2023-03-07T08:00:00,cen,15.60
2023-03-07T08:01:00,cen,7.20
2023-03-07T08:03:00,cen,15.60
2023-03-07T08:05:00,cen,22.80
2023-03-07T08:07:00,cen,20.40
2023-03-07T08:08:00,cen,9.60
2023-03-07T08:09:00,cen,10.80
2023-03-07T08:11:00,cen,20.40
2023-03-07T08:12:00,cen,10.80
2023-03-07T08:14:00,cen,22.80
2023-03-07T08:16:00,cen,23.99
2023-03-07T08:18:00,cen,26.40
2023-03-07T08:19:00,cen,13.20
2023-03-07T08:21:00,cen,27.60
2023-03-07T08:22:00,cen,13.21
2023-03-07T08:23:00,cen,14.40
2023-03-07T08:25:00,cen,26.40
2023-03-07T08:27:00,cen,26.40
2023-03-07T08:29:00,cen,27.60
2023-03-07T08:30:00,cen,14.40
2023-03-07T08:32:00,cen,28.80
2023-03-07T08:34:00,cen,26.40
2023-03-07T08:36:00,cen,31.20
2023-03-07T08:38:00,cen,27.60
2023-03-07T08:40:00,cen,27.60
2023-03-07T08:41:00,cen,14.40
2023-03-07T08:43:00,cen,27.60
2023-03-07T08:45:00,cen,26.40
2023-03-07T08:46:00,cen,14.40
2023-03-07T08:48:00,cen,27.60
2023-03-07T08:49:00,cen,15.60
2023-03-07T08:50:00,cen,15.60
2023-03-07T08:52:00,cen,31.20
2023-03-07T08:54:00,cen,33.60
2023-03-07T08:56:00,cen,30.00
2023-03-07T08:57:00,cen,15.60
2023-03-07T08:59:00,cen,30.00
2023-03-07T09:01:00,cen,30.00
2023-03-07T09:03:00,cen,30.00
2023-03-07T09:04:00,cen,15.59
2023-03-07T09:06:00,cen,30.00
2023-03-07T09:08:00,cen,34.80
2023-03-07T09:10:00,cen,36.00
2023-03-07T09:12:00,cen,50.40
2023-03-07T09:13:00,cen,24.00
2023-03-07T09:14:00,cen,24.00
2023-03-07T09:15:00,cen,25.20
2023-03-07T09:16:00,cen,16.79
2023-03-07T09:18:00,cen,32.40
2023-03-07T09:20:00,cen,32.40
2023-03-07T09:21:00,cen,14.40
2023-03-07T09:23:00,cen,30.00
2023-03-07T09:25:00,cen,32.40
2023-03-07T09:27:00,cen,31.20
2023-03-07T09:28:00,cen,18.00
2023-03-07T09:30:00,cen,30.00
2023-03-07T09:32:00,cen,32.40
2023-03-07T09:34:00,cen,31.19
2023-03-07T09:36:00,cen,30.00
2023-03-07T09:38:00,cen,31.20
2023-03-07T09:39:00,cen,15.60
2023-03-07T09:40:00,cen,16.80
2023-03-07T09:42:00,cen,30.00
2023-03-07T09:43:00,cen,15.60
2023-03-07T09:45:00,cen,30.00
2023-03-07T09:46:00,cen,15.60
2023-03-07T09:48:00,cen,32.40
2023-03-07T09:49:00,cen,14.41
2023-03-07T09:51:00,cen,31.19
2023-03-07T09:52:00,cen,15.60
2023-03-07T09:54:00,cen,28.80
2023-03-07T09:56:00,cen,28.81
2023-03-07T09:57:00,cen,13.20
2023-03-07T09:59:00,cen,27.60
2023-03-07T10:00:00,cen,14.40
2023-03-07T10:02:00,cen,27.60
2023-03-07T10:04:00,cen,28.80
2023-03-07T10:05:00,cen,13.20
2023-03-07T10:07:00,cen,28.80
2023-03-07T10:09:00,cen,27.60
2023-03-07T10:10:00,cen,14.41
2023-03-07T10:11:00,cen,15.59
2023-03-07T10:12:00,cen,14.41
2023-03-07T10:14:00,cen,27.60
2023-03-07T10:15:00,cen,13.20
2023-03-07T10:16:00,cen,13.20
2023-03-07T10:18:00,cen,27.60
2023-03-07T10:20:00,cen,27.60
2023-03-07T10:22:00,cen,27.60
2023-03-07T10:24:00,cen,25.20
2023-03-07T10:26:00,cen,30.00
2023-03-07T10:28:00,cen,30.00
2023-03-07T10:30:00,cen,30.00
2023-03-07T10:32:00,cen,27.60
2023-03-07T10:34:00,cen,33.60
2023-03-07T10:35:00,cen,14.40
2023-03-07T10:36:00,cen,14.40
2023-03-07T10:38:00,cen,28.80
2023-03-07T10:39:00,cen,15.60
2023-03-07T10:41:00,cen,28.80
2023-03-07T10:43:00,cen,28.80
2023-03-07T10:45:00,cen,26.40
2023-03-07T10:47:00,cen,27.60
2023-03-07T10:48:00,cen,13.20
2023-03-07T10:50:00,cen,27.60
2023-03-07T10:52:00,cen,26.40
2023-03-07T10:53:00,cen,14.40
2023-03-07T10:55:00,cen,26.40
2023-03-07T10:57:00,cen,26.40
2023-03-07T10:59:00,cen,25.20
2023-03-07T11:01:00,cen,25.20
2023-03-07T11:03:00,cen,25.20
2023-03-07T11:05:00,cen,25.20
2023-03-07T11:06:00,cen,12.00
2023-03-07T11:08:00,cen,22.80
2023-03-07T11:09:00,cen,12.00
2023-03-07T11:10:00,cen,12.00
2023-03-07T11:12:00,cen,22.80
2023-03-07T11:13:00,cen,13.20
2023-03-07T11:14:00,cen,12.00
2023-03-07T11:16:00,cen,22.79
2023-03-07T11:18:00,cen,24.00
2023-03-07T11:20:00,cen,24.00
2023-03-07T11:22:00,cen,42.00
2023-03-07T11:24:00,cen,42.00
2023-03-07T11:25:00,cen,21.60
2023-03-07T11:27:00,cen,27.60
2023-03-07T11:28:00,cen,13.21
2023-03-07T11:29:00,cen,14.40
2023-03-07T11:31:00,cen,26.40
2023-03-07T11:32:00,cen,12.00
2023-03-07T11:33:00,cen,13.20
2023-03-07T11:35:00,cen,25.20
2023-03-07T11:36:00,cen,12.00
2023-03-07T11:37:00,cen,12.00
2023-03-07T11:39:00,cen,26.40
2023-03-07T11:40:00,cen,13.20
2023-03-07T11:42:00,cen,24.00
2023-03-07T11:44:00,cen,25.20
2023-03-07T11:46:00,cen,25.20
2023-03-07T11:48:00,cen,24.00
2023-03-07T11:49:00,cen,12.00
2023-03-07T11:51:00,cen,24.00
2023-03-07T11:53:00,cen,24.00
2023-03-07T11:54:00,cen,13.20
2023-03-07T11:56:00,cen,25.20
2023-03-07T11:58:00,cen,25.20
2023-03-07T11:59:00,cen,13.21
2023-03-07T12:00:00,cen,12.00
2023-03-07T12:02:00,cen,27.60
2023-03-07T12:04:00,cen,24.00
2023-03-07T12:05:00,cen,15.60
2023-03-07T12:06:00,cen,12.00
2023-03-07T12:08:00,cen,25.20
2023-03-07T12:09:00,cen,12.00
2023-03-07T12:10:00,cen,10.80
2023-03-07T12:12:00,cen,28.80
2023-03-07T12:14:00,cen,27.60
2023-03-07T12:16:00,cen,25.20
2023-03-07T12:17:00,cen,13.20
2023-03-07T12:18:00,cen,12.00
2023-03-07T12:20:00,cen,22.80
2023-03-07T12:21:00,cen,12.00
2023-03-07T12:22:00,cen,12.00
2023-03-07T12:24:00,cen,25.20
2023-03-07T12:26:00,cen,26.40
2023-03-07T12:28:00,cen,25.20
2023-03-07T12:29:00,cen,10.80
2023-03-07T12:31:00,cen,22.80
2023-03-07T12:32:00,cen,9.60
2023-03-07T12:34:00,cen,21.60
2023-03-07T12:35:00,cen,10.80
2023-03-07T12:36:00,cen,9.60
2023-03-07T12:38:00,cen,22.80
2023-03-07T12:39:00,cen,13.20
2023-03-07T12:41:00,cen,21.60
2023-03-07T12:43:00,cen,22.80
2023-03-07T12:44:00,cen,14.40
2023-03-07T12:46:00,cen,39.60
2023-03-07T12:48:00,cen,39.60
2023-03-07T12:50:00,cen,25.20
2023-03-07T12:52:00,cen,24.00
2023-03-07T12:54:00,cen,24.00
2023-03-07T12:55:00,cen,12.00
2023-03-07T12:57:00,cen,25.20
2023-03-07T12:59:00,cen,22.80
2023-03-07T13:00:00,cen,12.00
2023-03-07T13:02:00,cen,21.60
2023-03-07T13:04:00,cen,21.61
2023-03-07T13:05:00,cen,10.80
2023-03-07T13:07:00,cen,21.60
2023-03-07T13:10:00,cen,21.60
2023-03-07T13:11:00,cen,21.60
2023-03-07T13:12:00,cen,28.81
2023-03-07T13:13:00,cen,26.40
2023-03-07T13:15:00,cen,26.40
2023-03-07T13:17:00,cen,22.79
2023-03-07T13:19:00,cen,22.80
2023-03-07T13:21:00,cen,24.00
2023-03-07T13:23:00,cen,22.80
2023-03-07T13:25:00,cen,21.60
2023-03-07T13:27:00,cen,21.60
2023-03-07T13:29:00,cen,20.41
2023-03-07T13:31:00,cen,22.80
2023-03-07T13:32:00,cen,10.80
2023-03-07T13:33:00,cen,10.80
2023-03-07T13:35:00,cen,24.00
2023-03-07T13:37:00,cen,25.20
2023-03-07T13:39:00,cen,27.60
2023-03-07T13:40:00,cen,13.20
2023-03-07T13:42:00,cen,26.40
2023-03-07T13:43:00,cen,12.00
2023-03-07T13:45:00,cen,25.20
2023-03-07T13:46:00,cen,13.21
2023-03-07T13:47:00,cen,12.00
2023-03-07T13:49:00,cen,25.20
2023-03-07T13:51:00,cen,26.40
2023-03-07T13:53:00,cen,30.00
2023-03-07T13:54:00,cen,21.60
2023-03-07T13:55:00,cen,20.40
2023-03-07T13:57:00,cen,39.60
2023-03-07T13:58:00,cen,13.20
2023-03-07T14:00:00,cen,24.00
2023-03-07T14:01:00,cen,12.00
2023-03-07T14:03:00,cen,25.20
2023-03-07T14:05:00,cen,25.20
2023-03-07T14:07:00,cen,24.00
2023-03-07T14:08:00,cen,13.20
2023-03-07T14:10:00,cen,22.80
2023-03-07T14:11:00,cen,9.60
2023-03-07T14:13:00,cen,20.40
2023-03-07T14:15:00,cen,20.40
2023-03-07T14:17:00,cen,20.40
2023-03-07T14:19:00,cen,21.61
2023-03-07T14:20:00,cen,10.80
2023-03-07T14:21:00,cen,10.80
2023-03-07T14:23:00,cen,21.60
2023-03-07T14:25:00,cen,20.40
2023-03-07T14:27:00,cen,25.20
2023-03-07T14:29:00,cen,21.60
2023-03-07T14:30:00,cen,12.00
2023-03-07T14:31:00,cen,12.00
2023-03-07T14:33:00,cen,23.99
2023-03-07T14:34:00,cen,12.00
2023-03-07T14:36:00,cen,22.80
2023-03-07T14:38:00,cen,21.60
2023-03-07T14:39:00,cen,9.60
2023-03-07T14:41:00,cen,20.40
2023-03-07T14:43:00,cen,20.40
2023-03-07T14:45:00,cen,20.41
2023-03-07T14:47:00,cen,20.40
2023-03-07T14:48:00,cen,9.60
2023-03-07T14:50:00,cen,21.60
2023-03-07T14:52:00,cen,21.60
2023-03-07T14:53:00,cen,10.80
2023-03-07T14:55:00,cen,20.41
2023-03-07T14:57:00,cen,22.80
2023-03-07T14:59:00,cen,21.60
2023-03-07T15:01:00,cen,21.60
2023-03-07T15:03:00,cen,20.40
2023-03-07T15:04:00,cen,14.40
2023-03-07T15:05:00,cen,12.00
2023-03-07T15:07:00,cen,21.60
2023-03-07T15:08:00,cen,10.80
2023-03-07T15:09:00,cen,9.60
2023-03-07T15:10:00,cen,10.80
2023-03-07T15:12:00,cen,23.99
2023-03-07T15:14:00,cen,25.20
2023-03-07T15:17:00,cen,37.20
2023-03-07T15:19:00,cen,24.00
2023-03-07T15:21:00,cen,24.00
2023-03-07T15:23:00,cen,25.20
2023-03-07T15:24:00,cen,25.20
2023-03-07T15:25:00,cen,12.00
2023-03-07T15:26:00,cen,23.99
2023-03-07T15:27:00,cen,12.00
2023-03-07T15:28:00,cen,15.60
2023-03-07T15:30:00,cen,40.80
2023-03-07T15:31:00,cen,20.41
2023-03-07T15:33:00,cen,33.60
2023-03-07T15:35:00,cen,24.00
2023-03-07T15:37:00,cen,24.00
2023-03-07T15:39:00,cen,22.80
2023-03-07T15:41:00,cen,22.80
2023-03-07T15:43:00,cen,23.99
2023-03-07T15:44:00,cen,12.00
2023-03-07T15:45:00,cen,12.00
2023-03-07T15:47:00,cen,24.00
2023-03-07T15:48:00,cen,10.80
2023-03-07T15:50:00,cen,23.99
2023-03-07T15:52:00,cen,24.00
2023-03-07T15:54:00,cen,24.00
2023-03-07T15:55:00,cen,10.80
2023-03-07T15:56:00,cen,12.00
2023-03-07T15:58:00,cen,25.20
2023-03-07T15:59:00,cen,13.20
2023-03-07T16:00:00,cen,12.00
2023-03-07T16:02:00,cen,22.80
2023-03-07T16:03:00,cen,12.00
2023-03-07T16:05:00,cen,22.80
2023-03-07T16:06:00,cen,10.80
2023-03-07T16:08:00,cen,24.00
2023-03-07T16:10:00,cen,28.80
2023-03-07T16:11:00,cen,13.20
2023-03-07T16:13:00,cen,27.60
2023-03-07T16:14:00,cen,13.20
2023-03-07T16:16:00,cen,25.20
2023-03-07T16:18:00,cen,21.60
2023-03-07T16:20:00,cen,20.40
2023-03-07T16:22:00,cen,21.60
2023-03-07T16:24:00,cen,20.40
2023-03-07T16:25:00,cen,9.60
2023-03-07T16:27:00,cen,21.60
2023-03-07T16:29:00,cen,20.40
2023-03-07T16:30:00,cen,10.80
2023-03-07T16:32:00,cen,21.60
2023-03-07T16:34:00,cen,20.40
2023-03-07T16:35:00,cen,10.80
2023-03-07T16:36:00,cen,9.60
2023-03-07T16:38:00,cen,22.80
2023-03-07T16:39:00,cen,8.40
2023-03-07T16:41:00,cen,20.40
2023-03-07T16:43:00,cen,18.00
2023-03-07T16:45:00,cen,18.00
2023-03-07T16:47:00,cen,16.80
2023-03-07T16:49:00,cen,16.80
2023-03-07T16:51:00,cen,15.59
2023-03-07T16:53:00,cen,18.00
2023-03-07T16:55:00,cen,15.60
2023-03-07T16:57:00,cen,16.80
2023-03-07T16:58:00,cen,7.20
2023-03-07T17:00:00,cen,15.60
2023-03-07T17:02:00,cen,16.79
2023-03-07T17:04:00,cen,16.80
2023-03-07T17:05:00,cen,7.20
2023-03-07T17:06:00,cen,8.40
2023-03-07T17:08:00,cen,16.80
2023-03-07T17:09:00,cen,8.40
2023-03-07T17:11:00,cen,15.60
2023-03-07T17:12:00,cen,7.20
2023-03-07T17:14:00,cen,15.60
2023-03-07T17:15:00,cen,8.40
2023-03-07T17:16:00,cen,8.39
2023-03-07T17:18:00,cen,15.60
2023-03-07T17:19:00,cen,8.40
2023-03-07T17:21:00,cen,15.60
2023-03-07T17:22:00,cen,7.20
2023-03-07T17:23:00,cen,8.40
2023-03-07T17:25:00,cen,15.60
2023-03-07T17:27:00,cen,16.80
2023-03-07T17:28:00,cen,8.40
2023-03-07T17:29:00,cen,7.20
2023-03-07T17:31:00,cen,15.60
2023-03-07T17:32:00,cen,8.39
2023-03-07T17:33:00,cen,8.40
2023-03-07T17:35:00,cen,15.60
2023-03-07T17:37:00,cen,15.60
2023-03-07T17:38:00,cen,8.40
2023-03-07T17:40:00,cen,28.80
2023-03-07T17:41:00,cen,13.20
2023-03-07T17:43:00,cen,27.60
2023-03-07T17:44:00,cen,15.60
2023-03-07T17:45:00,cen,16.79
2023-03-07T17:47:00,cen,18.00
2023-03-07T17:49:00,cen,20.40
2023-03-07T17:51:00,cen,16.80
2023-03-07T17:53:00,cen,15.60
2023-03-07T17:55:00,cen,16.80
2023-03-07T17:57:00,cen,15.60
2023-03-07T17:58:00,cen,8.40
2023-03-07T18:00:00,cen,15.59
2023-03-07T18:02:00,cen,16.80
2023-03-07T18:03:00,cen,8.40
2023-03-07T18:04:00,cen,8.40
2023-03-07T18:06:00,cen,15.60
2023-03-07T18:07:00,cen,7.20
2023-03-07T18:09:00,cen,14.40
2023-03-07T18:10:00,cen,7.20
2023-03-07T18:12:00,cen,14.40
2023-03-07T18:13:00,cen,8.40
2023-03-07T18:14:00,cen,6.00
2023-03-07T18:16:00,cen,14.40
2023-03-07T18:17:00,cen,7.20
2023-03-07T18:18:00,cen,7.20
2023-03-07T18:20:00,cen,14.40
2023-03-07T18:21:00,cen,7.21
2023-03-07T18:23:00,cen,14.40
2023-03-07T18:25:00,cen,14.40
2023-03-07T18:26:00,cen,7.20
2023-03-07T18:28:00,cen,15.60
2023-03-07T18:29:00,cen,7.20
2023-03-07T18:31:00,cen,14.40
2023-03-07T18:33:00,cen,14.40
2023-03-07T18:35:00,cen,15.60
2023-03-07T18:37:00,cen,14.40
2023-03-07T18:39:00,cen,14.40
2023-03-07T18:41:00,cen,15.60
2023-03-07T18:43:00,cen,15.60
2023-03-07T18:45:00,cen,14.40
2023-03-07T18:47:00,cen,15.60
2023-03-07T18:48:00,cen,7.20
2023-03-07T18:50:00,cen,15.60
2023-03-07T18:52:00,cen,15.60
2023-03-07T18:54:00,cen,14.40
2023-03-07T18:56:00,cen,14.40
2023-03-07T18:58:00,cen,16.80
2023-03-07T19:00:00,cen,14.40
2023-03-07T19:02:00,cen,14.40
2023-03-07T19:04:00,cen,15.60
2023-03-07T19:05:00,cen,8.40
2023-03-07T19:07:00,cen,15.59
2023-03-07T19:08:00,cen,7.20
2023-03-07T19:10:00,cen,16.80
2023-03-07T19:12:00,cen,15.60
2023-03-07T19:13:00,cen,8.40
2023-03-07T19:15:00,cen,16.80
2023-03-07T19:17:00,cen,15.60
2023-03-07T19:18:00,cen,8.40
2023-03-07T19:20:00,cen,15.60
2023-03-07T19:21:00,cen,9.59
2023-03-07T19:23:00,cen,15.60
2023-03-07T19:24:00,cen,7.20
2023-03-07T19:26:00,cen,15.60
2023-03-07T19:28:00,cen,16.80
2023-03-07T19:29:00,cen,8.40
2023-03-07T19:30:00,cen,8.40
2023-03-07T19:31:00,cen,7.20
2023-03-07T19:33:00,cen,16.79
2023-03-07T19:35:00,cen,15.60
2023-03-07T19:37:00,cen,16.80
2023-03-07T19:39:00,cen,15.60
2023-03-07T19:41:00,cen,15.60
2023-03-07T19:42:00,cen,7.20
2023-03-07T19:43:00,cen,8.40
2023-03-07T19:45:00,cen,16.80
2023-03-07T19:47:00,cen,15.60
2023-03-07T19:49:00,cen,15.59
2023-03-07T19:51:00,cen,15.60
2023-03-07T19:52:00,cen,8.40
2023-03-07T19:54:00,cen,15.60
2023-03-07T19:56:00,cen,15.60
2023-03-07T19:58:00,cen,14.40
2023-03-07T19:59:00,cen,7.20
2023-03-07T20:01:00,cen,15.60
2023-03-07T20:03:00,cen,9.60
2023-03-07T20:05:00,cen,8.40
2023-03-07T20:07:00,cen,9.59
2023-03-07T20:08:00,cen,6.01
2023-03-07T20:09:00,cen,4.80
2023-03-07T20:11:00,cen,8.40
2023-03-07T20:12:00,cen,4.80
2023-03-07T20:14:00,cen,8.40
2023-03-07T20:16:00,cen,9.60
2023-03-07T20:18:00,cen,10.80
2023-03-07T20:19:00,cen,3.60
2023-03-07T20:20:00,cen,4.80
2023-03-07T20:21:00,cen,4.80
2023-03-07T20:23:00,cen,8.40
2023-03-07T20:25:00,cen,16.79
2023-03-07T20:26:00,cen,13.21
2023-03-07T20:28:00,cen,26.40
2023-03-07T20:30:00,cen,22.80
2023-03-07T20:32:00,cen,10.80
2023-03-07T20:33:00,cen,10.80
2023-03-07T20:34:00,cen,9.59
2023-03-07T20:35:00,cen,4.80
2023-03-07T20:37:00,cen,9.59
2023-03-07T20:38:00,cen,3.60
2023-03-07T20:40:00,cen,10.80
2023-03-07T20:42:00,cen,9.60
2023-03-07T20:44:00,cen,8.40
2023-03-07T20:45:00,cen,4.80
2023-03-07T20:46:00,cen,4.80
2023-03-07T20:48:00,cen,9.59
2023-03-07T20:50:00,cen,9.60
2023-03-07T20:52:00,cen,8.40
2023-03-07T20:53:00,cen,4.80
2023-03-07T20:55:00,cen,9.60
2023-03-07T20:57:00,cen,10.80
2023-03-07T20:59:00,cen,9.59
2023-03-07T21:01:00,cen,9.60
2023-03-07T21:03:00,cen,10.80
2023-03-07T21:05:00,cen,10.80
2023-03-07T21:06:00,cen,3.60
2023-03-07T21:08:00,cen,9.60
2023-03-07T21:09:00,cen,6.00
2023-03-07T21:11:00,cen,8.40
2023-03-07T21:12:00,cen,4.80
2023-03-07T21:13:00,cen,6.00
2023-03-07T21:15:00,cen,9.60
2023-03-07T21:17:00,cen,9.60
2023-03-07T21:18:00,cen,3.60
2023-03-07T21:20:00,cen,9.60
2023-03-07T21:21:00,cen,6.00
2023-03-07T21:22:00,cen,3.60
2023-03-07T21:24:00,cen,10.80
2023-03-07T21:26:00,cen,8.40
2023-03-07T21:27:00,cen,4.80
2023-03-07T21:29:00,cen,9.60
2023-03-07T21:31:00,cen,9.60
2023-03-07T21:33:00,cen,8.40
2023-03-07T21:35:00,cen,9.59
2023-03-07T21:37:00,cen,10.80
2023-03-07T21:38:00,cen,3.60
2023-03-07T21:40:00,cen,9.60
2023-03-07T21:41:00,cen,4.80
2023-03-07T21:42:00,cen,3.60
2023-03-07T21:44:00,cen,9.60
2023-03-07T21:46:00,cen,9.60
2023-03-07T21:47:00,cen,6.00
2023-03-07T21:49:00,cen,8.40
2023-03-07T21:50:00,cen,4.80
2023-03-07T21:51:00,cen,3.60
2023-03-07T21:52:00,cen,4.80
2023-03-07T21:54:00,cen,9.60
2023-03-07T21:56:00,cen,9.59
2023-03-07T21:57:00,cen,4.80
2023-03-07T21:58:00,cen,6.00
2023-03-07T22:00:00,cen,10.80
2023-03-07T22:02:00,cen,12.00
2023-03-07T22:04:00,cen,10.80
2023-03-07T22:05:00,cen,6.01
2023-03-07T22:07:00,cen,9.59
2023-03-07T22:08:00,cen,4.80
2023-03-07T22:10:00,cen,12.00
2023-03-07T22:11:00,cen,6.00
2023-03-07T22:13:00,cen,10.80
2023-03-07T22:15:00,cen,9.60
2023-03-07T22:17:00,cen,10.80